Погода в Тишковке

Украина / Кировоградская область     48°29′47″N   30°56′10″E
темп.,
°C
ветер,
м/с
пор.,
м/с
влажн.,
%
обл.,
%
осадки,
мм/ч
давл.,
гПа
погр.,
м
15 мая, сб
сб1500:00+11ююз479334 0.0 1009121
03:00+10ююз359534 0.0 100999
06:00+10юз23946 0.0 101049
09:00+16зюз33703 0.0 1011483
12:00+20зюз46515 0.0 10121521
15:00+21юз5747100 0.0 10112299
18:00+17сз3672100 0.1 1012208
21:00+15св1172100 0.1 101211
16 мая, вс
вс1600:00+13вюв11765 0.0 101310
03:00+12в22824 0.0 101318
06:00+12вюв118886 0.0 101312
09:00+18вюв236597 0.0 1013420
12:00+22вюв3349100 0.0 10121428
15:00+24вюв3441100 0.0 10112246
18:00+23вюв345060 0.0 1009510
21:00+18в225880 0.0 100911
17 мая, пн
пн1700:00+17св3365100 0.0 100840
03:00+16с2273100 0.0 100727
06:00+13ююв1298100 9.3 100774
09:00+15сз5891100 18.5 1006465
12:00+18с347794 0.1 1007626
15:00+20ссз337080 1.3 10061036
18:00+20ссз34685 2.1 10061008
21:00+16з118487 2.2 100710
18 мая, вт
вт1800:00+14юз2390100 0.5 100735
03:00+13ююз22944 1.4 100729
06:00+12юз3495100 0.1 100792
09:00+17юз2377100 0.1 1007389
12:00+20ююв346592 1.5 1007769
15:00+19ююз467292 9.3 1006708
18:00+18з79770 3.5 10071000
21:00+13з4108718 3.5 1008254
19 мая, ср
ср1900:00+12з3592100 0.0 1009103
03:00+12юз2292100 0.0 101035
06:00+12сз2390100 0.0 101084
09:00+13ююв249197 0.1 1010200
12:00+13вюв2390100 0.2 1010205
15:00+13св3593100 3.8 1009297
18:00+13всв2398100 8.9 1008138
21:00+13всв4798100 10.1 1006329